Torna al catalogo

CZ-6A DEB

AttivoSSO
NORAD 54270·DEBRIS·🇨🇳 China

Lanciato Nov 11, 2022 da Taiyuan Satellite Launch Center

Loading…

Prossimi Passaggi (prossime 24 ore)

TLE

AggiornatoSource: Space-Track

Epoca: Sep 14, 2026, 22:43 UTC

1 54270U 22151M   26257.94711144  .00000100  00000-0  90038-4 0  9997
2 54270  98.9060 243.4026 0084635 145.4098 215.2615 14.02382399196009

Traccia CZ-6A DEB in tempo reale con AllMySat

Download on the App Store